IRIDIUM 97 [B] (27450 NORAD) Tracking and Keplerian Element Data

This shows tracking and keplerian element data for the satellite.

Feedback or suggestion? Click here.




ElementValue
Catalog27450
NameIRIDIUM 97 [B]
Epoch Orbit86491
Epoch Day323.47729795
Epoch Year2018
RAAN101.5057
Inclination86.4215
Eccentricity0.000183
Argument of Perigee92.9358
Mean Anonmoly267.205
Mean Motion14.38607684
Decay Rate1.8E-07
L11 27450U 02031A 18323.47729795 .00000018 00000-0 -59473-6 0 9995
L22 27450 86.4215 101.5057 0001830 92.9358 267.2050 14.38607684864910

Live tracking and technical data element details for IRIDIUM 97 [B] (NORAD 27450). IRIDIUM 97 [B] can be tracked NOW for your location showing map with azimuth and elevation plus other details from your city location.

Track the satellite on the map from your city or location and see movement details for azimuth, elevation, latitude, longitude, range, height, and movement on the map or in text.







IsCatalogInMostPopularTable: catalog: 27450, numindb: 50
Update: records affected: 1



GetName: 27450 IRIDIUM 97 [B]

Hit Count: updated at: Wed, 21 Nov 2018 06:10:32 GMT